Regional Weather Roundup
Issued by NWS

Home | Current Version | Previous Version | Text Only | Print | Product List | Glossary Off
Versions: 1 2 3 4 5 6 7 8 9 10 11 12 13 14 15 16 17 18 19 20 21 22 23 24 25 26 27 28 29 30 31 32 33 34 35 36 37 38 39 40 41 42 43 44 45 46 47 48 49 50

000
ASUS43 KOAX 200002
RWRNE

WEATHER ROUNDUP FOR NEBRASKA
NATIONAL WEATHER SERVICE OMAHA NE
700 PM CDT SAT AUG 19 2017

NOTES: SATELLITE DATA IS BEING USED TO AUGMENT CLOUD COVER ABOVE
       12000 FEET.
       "FAIR" INDICATES FEW OR NO CLOUDS BELOW 12,000 FEET WITH NO
       SIGNIFICANT WEATHER AND/OR OBSTRUCTIONS TO VISIBILITY.


NEZ001>004-019>022-054>056-200100-
NEBRASKA PANHANDLE

CITY           SKY/WX    TMP DP  RH WIND       PRES   REMARKS
SCOTTSBLUFF    SUNNY     94  34  12 N6        29.89F
6HR MIN TEMP:  87; 6HR MAX TEMP:  96;

ALLIANCE       SUNNY     90  43  19 N6        29.89F
6HR MIN TEMP:  86; 6HR MAX TEMP:  92;

CHADRON        SUNNY     95  34  11 CALM      29.83F HX  90
6HR MIN TEMP:  88; 6HR MAX TEMP:  97;

GORDON         FAIR      92  39  15 CALM      29.87S
6HR MIN TEMP:  86; 6HR MAX TEMP:  94;

KIMBALL        SUNNY     91  37  15 NE8       29.98S
SIDNEY         SUNNY     92  45  19 NE9       29.94S
6HR MIN TEMP:  90; 6HR MAX TEMP:  98;

$$

NEZ057>060-069>072-079>082-200100-
SOUTHWEST NEBRASKA

CITY           SKY/WX    TMP DP  RH WIND       PRES   REMARKS
NORTH PLATTE   CLOUDY    87  68  52 SE3       29.82F HX  90
6HR MIN TEMP:  86; 6HR MAX TEMP:  93;

IMPERIAL       CLOUDY    91  59  33 S6        29.85S HX  90
6HR MIN TEMP:  89; 6HR MAX TEMP:  97;

LEXINGTON      SUNNY     86  67  52 SE12      29.82F
MCCOOK         CLOUDY    92  64  39 S12       29.82S HX  93
6HR MIN TEMP:  91; 6HR MAX TEMP:  97;

OGALLALA       CLOUDY    89  54  29 CALM      29.86F
$$

NEZ005>010-023>029-035>040-094-200100-
NORTH CENTRAL NEBRASKA

CITY           SKY/WX    TMP DP  RH WIND       PRES   REMARKS
VALENTINE      SUNNY     96  49  20 W8        29.78F HX  93
6HR MIN TEMP:  90; 6HR MAX TEMP:  98;

AINSWORTH      SUNNY     90  64  42 W3        29.78S HX  91
BROKEN BOW     CLOUDY    90  69  50 S14       29.83S HX  94
6HR MIN TEMP:  87; 6HR MAX TEMP:  92;

O`NEILL        CLOUDY    81  70  69 SE14G22   29.80F
ORD            CLOUDY    85  66  53 SE8       29.83R
6HR MIN TEMP:  82; 6HR MAX TEMP:  88;

THEDFORD       SUNNY     94  58  30 W10G20    29.82S HX  93
$$

NEZ041-046>049-061>064-073>077-083>087-200100-
SOUTH CENTRAL NEBRASKA

CITY           SKY/WX    TMP DP  RH WIND       PRES   REMARKS
GRAND ISLAND   SUNNY     84  73  69 SE14      29.82F HX  90
6HR MIN TEMP:  81; 6HR MAX TEMP:  87;

AURORA         SUNNY     83  70  64 SE10      29.83F
HASTINGS       SUNNY     87  70  56 SE14      29.84F HX  92
6HR MIN TEMP:  84; 6HR MAX TEMP:  91;

HEBRON         SUNNY     87  71  59 SE8       29.85F HX  93
HOLDREGE       SUNNY     85  64  49 SE9       29.83F
KEARNEY        SUNNY     86  69  56 SE13      29.82F HX  90
YORK           MOSUNNY   84  72  65 SE8       29.84F
$$

NEZ011>018-030>034-042>045-200100-
NORTHEAST NEBRASKA

CITY           SKY/WX    TMP DP  RH WIND       PRES   REMARKS
NORFOLK        SUNNY     78  67  68 SE10      29.84S
6HR MIN TEMP:  78; 6HR MAX TEMP:  83;

ALBION         SUNNY     81  70  70 SE7       29.84S
BLAIR          SUNNY     81  63  54 SE7       29.87F
COLUMBUS       SUNNY     81  69  67 E10       29.84F
FREMONT        SUNNY     82  62  50 SE10G16   29.86F
TEKAMAH        SUNNY     81  67  62 SE8       29.85F
6HR MIN TEMP:  78; 6HR MAX TEMP:  84;

WAYNE          SUNNY     78  69  74 SE8       29.84F
$$

NEZ050>053-065>068-078-088>093-200100-
SOUTHEAST NEBRASKA

CITY           SKY/WX    TMP DP  RH WIND       PRES   REMARKS
LINCOLN        SUNNY     85  66  53 SE12      29.86F
6HR MIN TEMP:  82; 6HR MAX TEMP:  88;

OMAHA EPPLEY   MOSUNNY   85  62  46 SE15      29.87F
6HR MIN TEMP:  82; 6HR MAX TEMP:  88;

BEATRICE       SUNNY     92  62  36 S9        29.85F HX  93
FALLS CITY     SUNNY     85  68  56 SE7       29.87F
6HR MIN TEMP:  84; 6HR MAX TEMP:  88;

NEBRASKA CITY  SUNNY     83  67  59 SE6       29.88F
PLATTSMOUTH    SUNNY     82  63  52 SE9       29.88F
$$

NEZ044-045-051>053-067-200100-
OMAHA AREA

CITY           SKY/WX    TMP DP  RH WIND       PRES   REMARKS
OMAHA EPPLEY   MOSUNNY   85  62  46 SE15      29.87F
6HR MIN TEMP:  82; 6HR MAX TEMP:  88;

BLAIR          SUNNY     81  63  54 SE7       29.87F
FREMONT        SUNNY     82  62  50 SE10G16   29.86F
MILLARD        SUNNY     84  62  47 SE10      29.86F
OFFUTT AFB     SUNNY     83  62  47 SE8       29.86F
PLATTSMOUTH    SUNNY     82  63  52 SE9       29.88F
WAHOO          FAIR      81  66  60 SE9       29.85F
$$




USA.gov is the U.S. government's official web portal to all federal, state and local government web resources and services.